Weather Roundup
Issued by NWS Chicago, IL

Home | Current Version | Previous Version | Graphics & Text | Print | Product List | Glossary On
Versions: 1 2 3 4 5 6 7 8 9 10 11 12 13 14 15 16 17 18 19 20 21 22 23 24 25 26 27 28 29 30 31 32 33 34 35 36 37 38 39 40 41 42 43 44 45 46 47 48 49 50
000
NZUS59 KLOT 291212
HRRLOT

CHICAGO AREA WEATHER ROUNDUP
NATIONAL WEATHER SERVICE CHICAGO/ROMEOVILLE IL
700 AM CDT FRI MAY 29 2015

NOTE: "FAIR" INDICATES FEW OR NO CLOUDS BELOW 12,000 FEET WITH NO
SIGNIFICANT WEATHER AND/OR OBSTRUCTIONS TO VISIBILITY.

* THESE STATIONS ARE NOT UNDER NWS QUALITY CONTROL. THEY ALSO MAY NOT
  REPORT WEATHER SUCH AS PRECIPITATION OR FOG.

ILZ005-006-012>014-019>023-291300-
NORTHEAST ILLINOIS

CITY           SKY/WX    TMP DP  RH WIND       PRES   REMARKS
OHARE          PTSUNNY   69  63  81 S5        30.02R
6HR MIN TEMP:  63; 6HR MAX TEMP:  69;

MIDWAY         CLOUDY    73  65  75 S9        30.03R
6HR MIN TEMP:  71; 6HR MAX TEMP:  73;

AURORA         PTSUNNY   68  62  81 S5        30.03R HAZE
6HR MIN TEMP:  64; 6HR MAX TEMP:  68;

LANSING*       CLOUDY    68  63  82 S8        30.04S
JOLIET*        PTSUNNY   71  66  85 S3        30.04R
WAUKEGAN       PTSUNNY   65  60  84 CALM      30.02S
6HR MIN TEMP:  58; 6HR MAX TEMP:  65;

DUPAGE AIRPORT PTSUNNY   68  63  84 S6        30.02S
6HR MIN TEMP:  63; 6HR MAX TEMP:  68;

WHEELING       PTSUNNY   69  63  81 S6        30.04R
6HR MIN TEMP:  62; 6HR MAX TEMP:  69;

KANKAKEE*      PTSUNNY   69  65  87 S8        30.05S
MORRIS*        PTSUNNY   69  64  84 S5        30.02R
LEWIS AIRPORT* PTSUNNY   69  64  83 S9        30.04R
NORTHERLY IS     N/A     64  60  87 S2          N/A
$$

WIZ051-052-058>065-066-070>072-291300-
SOUTHEAST WISCONSIN

CITY           SKY/WX    TMP DP  RH WIND       PRES   REMARKS
MILWAUKEE      PTSUNNY   65  56  72 S8        30.01S
6HR MIN TEMP:  59; 6HR MAX TEMP:  65;

KENOSHA*       MOSUNNY   67  60  78 S6        30.02S
RACINE*        MOSUNNY   66  57  72 CALM      30.04R
BURLINGTON     PTSUNNY   59  58  94 CALM      30.02S
WAUKESHA       MOSUNNY   64  55  72 S5        30.03R
WEST BEND      PTSUNNY   63  55  77 CALM      30.01S
$$

INZ001>003-010>013-019-020-291300-
NORTHWEST INDIANA

CITY           SKY/WX    TMP DP  RH WIND       PRES   REMARKS
GARY*          PTSUNNY   70  66  88 SE7       30.04F
MICHIGAN CITY* NOT AVBL
RENSSELAER*    NOT AVBL
VALPARAISO     CLOUDY    68  63  84 S8        30.07S
$$

LMZ740>746-291300-
SOUTHERN LAKE MICHIGAN

STATION/POSITION TIME  SKY/WX   TEMP WIND        PRES    VSBY
                                AIR  DIR/SP/G
                 (UTC)          (F)  (DEG/KT/KT) (MB)    (MI)
HARRISON CRIB    1100            62  150/ 12/ 13   N/A
BURNHAM HARBOR   1200            69  190/  7       N/A
CALUMET HARBOR   1106            70  170/  8/  9   N/A
BURNS HARBOR     1140            70  160/ 10/ 14 1017.9R
MICHIGAN CITY    1100            69  130/ 10/ 13   N/A
$$

ABBREVIATIONS USED IN REMARKS
   TC - TEMPERATURE IN CELSIUS
  WCI - WIND CHILL INDEX
   HX - HEAT INDEX
  VSB - VISIBILITY
$$


USA.gov is the U.S. government's official web portal to all federal, state and local government web resources and services.